• In Moldova, Republic
  • List of Countries
  • For 7 days
  • Water Temperature
  • Satellite Maps
  • Weather Map
  • Weather Widgets
  • user-avatar
    Login

    Hourly Weather Kaprun

    Today, 25 February, Saturday

    Time Temperature Precipitation Wind Pressure Humidity
    00:00 -12°C° 0.1 mm 2 mps 592 mmHg 97%
    01:00 -13°C° 0 mm 2 mps 592 mmHg 97%
    02:00 -14°C° 0 mm 2 mps 592 mmHg 97%
    03:00 -14°C° 0 mm 2 mps 592 mmHg 96%
    04:00 -15°C° 0 mm 2 mps 592 mmHg 96%
    05:00 -16°C° 0 mm 2 mps 591 mmHg 95%
    06:00 -17°C° 0 mm 2 mps 591 mmHg 94%
    07:00 -17°C° 0 mm 2 mps 591 mmHg 94%
    08:00 -15°C° 0 mm 2 mps 593 mmHg 91%
    09:00 -10°C° 0 mm 1 mps 594 mmHg 88%
    10:00 -7°C° 0 mm 1 mps 596 mmHg 86%
    11:00 -6°C° 0 mm 1 mps 596 mmHg 83%
    12:00 -4°C° 0 mm 1 mps 596 mmHg 81%
    13:00 -3°C° 0 mm 1 mps 597 mmHg 78%
    14:00 -4°C° 0 mm 0 mps 597 mmHg 81%
    15:00 -4°C° 0 mm 0 mps 596 mmHg 84%
    16:00 -3°C° 0 mm 0 mps 596 mmHg 87%
    17:00 -7°C° 0 mm 1 mps 595 mmHg 89%
    18:00 -10°C° 0 mm 1 mps 593 mmHg 91%
    19:00 -13°C° 0 mm 1 mps 591 mmHg 93%
    20:00 -13°C° 0 mm 1 mps 592 mmHg 92%
    21:00 -12°C° 0 mm 1 mps 592 mmHg 90%
    22:00 -12°C° 0 mm 1 mps 593 mmHg 89%
    23:00 -13°C° 0 mm 2 mps 593 mmHg 87%

    Tomorrow, 26 February, Sunday

    Time Temperature Precipitation Wind Pressure Humidity
    00:00 -13°C° 0 mm 2 mps 593 mmHg 85%
    01:00 -12°C° 0 mm 2 mps 593 mmHg 83%
    02:00 -12°C° 0 mm 2 mps 592 mmHg 81%
    03:00 -12°C° 0 mm 2 mps 592 mmHg 80%
    04:00 -12°C° 0 mm 2 mps 592 mmHg 79%
    05:00 -12°C° 0 mm 2 mps 592 mmHg 78%
    06:00 -10°C° 0 mm 1 mps 592 mmHg 77%
    07:00 -10°C° 0 mm 1 mps 591 mmHg 76%
    08:00 -7°C° 0 mm 1 mps 593 mmHg 80%
    09:00 -3°C° 0 mm 1 mps 595 mmHg 84%
    10:00 0°C° 0 mm 1 mps 596 mmHg 88%
    11:00 +1°C° 0 mm 1 mps 596 mmHg 89%
    12:00 +1°C° 0 mm 1 mps 596 mmHg 89%
    13:00 +1°C° 0 mm 0 mps 596 mmHg 89%
    14:00 0°C° 0 mm 0 mps 596 mmHg 91%
    15:00 0°C° 0 mm 0 mps 595 mmHg 92%
    16:00 0°C° 0 mm 0 mps 595 mmHg 94%
    17:00 -1°C° 0 mm 0 mps 594 mmHg 92%
    18:00 -3°C° 0 mm 0 mps 593 mmHg 89%
    19:00 -5°C° 0 mm 0 mps 593 mmHg 87%
    20:00 -5°C° 0 mm 0 mps 593 mmHg 86%
    21:00 -5°C° 0 mm 0 mps 593 mmHg 86%
    22:00 -5°C° 0 mm 0 mps 593 mmHg 85%
    23:00 -5°C° 0 mm 0 mps 592 mmHg 85%

    Day after tomorrow, 27 February, Monday

    Time Temperature Precipitation Wind Pressure Humidity
    00:00 -4°C° 0 mm 1 mps 592 mmHg 85%
    01:00 -4°C° 0 mm 1 mps 592 mmHg 85%
    02:00 -4°C° 0 mm 1 mps 592 mmHg 87%
    03:00 -4°C° 0 mm 1 mps 592 mmHg 88%
    04:00 -4°C° 0 mm 1 mps 591 mmHg 90%
    05:00 -6°C° 0 mm 1 mps 591 mmHg 90%
    06:00 -6°C° 0 mm 1 mps 591 mmHg 90%
    07:00 -7°C° 0 mm 2 mps 591 mmHg 90%
    08:00 -6°C° 0 mm 2 mps 591 mmHg 89%
    09:00 -4°C° 0 mm 2 mps 592 mmHg 89%
    10:00 -2°C° 0 mm 2 mps 592 mmHg 88%
    11:00 -2°C° 0 mm 2 mps 592 mmHg 88%
    12:00 -1°C° 0 mm 2 mps 592 mmHg 88%
    13:00 +1°C° 0 mm 2 mps 592 mmHg 87%
    14:00 -1°C° 0 mm 2 mps 591 mmHg 89%
    15:00 -1°C° 0 mm 2 mps 591 mmHg 90%
    16:00 -1°C° 0 mm 2 mps 590 mmHg 91%
    17:00 -3°C° 0 mm 2 mps 590 mmHg 92%
    18:00 -4°C° 0 mm 2 mps 589 mmHg 93%
    19:00 -6°C° 0 mm 2 mps 588 mmHg 94%
    20:00 -6°C° 0 mm 2 mps 588 mmHg 94%
    21:00 -7°C° 0 mm 3 mps 588 mmHg 94%
    22:00 -8°C° 0 mm 3 mps 588 mmHg 94%
    23:00 -8°C° 0 mm 3 mps 588 mmHg 94%

    28 February, Tuesday

    Time Temperature Precipitation Wind Pressure Humidity
    00:00 -8°C° 0 mm 3 mps 587 mmHg 93%
    01:00 -8°C° 0 mm 3 mps 587 mmHg 93%
    02:00 -8°C° 0 mm 3 mps 587 mmHg 93%
    03:00 -8°C° 0 mm 3 mps 586 mmHg 93%
    04:00 -8°C° 0 mm 3 mps 586 mmHg 93%
    05:00 -8°C° 0 mm 3 mps 586 mmHg 93%
    06:00 -8°C° 0 mm 3 mps 586 mmHg 93%
    07:00 -8°C° 0 mm 3 mps 586 mmHg 93%
    08:00 -7°C° 0.1 mm 3 mps 586 mmHg 92%
    09:00 -5°C° 0.1 mm 3 mps 586 mmHg 91%
    10:00 -4°C° 0.1 mm 3 mps 587 mmHg 90%
    11:00 -2°C° 0.2 mm 3 mps 586 mmHg 89%
    12:00 -2°C° 0.2 mm 3 mps 586 mmHg 88%
    13:00 -1°C° 0.2 mm 3 mps 585 mmHg 87%
    14:00 -1°C° 0.3 mm 3 mps 585 mmHg 89%
    15:00 -2°C° 0.3 mm 3 mps 584 mmHg 91%
    16:00 -2°C° 0.3 mm 3 mps 583 mmHg 93%
    17:00 -4°C° 1 mm 3 mps 583 mmHg 95%
    18:00 -5°C° 1 mm 3 mps 583 mmHg 96%
    19:00 -6°C° 1 mm 3 mps 583 mmHg 98%
    20:00 -7°C° 2.4 mm 3 mps 583 mmHg 98%
    21:00 -7°C° 2.4 mm 3 mps 583 mmHg 98%
    22:00 -8°C° 2.4 mm 3 mps 584 mmHg 98%
    23:00 -8°C° 1.1 mm 3 mps 584 mmHg 97%

    1 March, Wednesday

    Time Temperature Precipitation Wind Pressure Humidity
    00:00 -9°C° 1.1 mm 3 mps 584 mmHg 96%
    01:00 -10°C° 1.1 mm 4 mps 585 mmHg 96%
    02:00 -11°C° 0.1 mm 4 mps 585 mmHg 95%
    03:00 -12°C° 0.1 mm 4 mps 586 mmHg 95%
    04:00 -14°C° 0.1 mm 4 mps 586 mmHg 95%
    05:00 -13°C° 0.1 mm 3 mps 587 mmHg 95%
    06:00 -14°C° 0.1 mm 3 mps 588 mmHg 95%
    07:00 -14°C° 0.1 mm 2 mps 588 mmHg 95%
    08:00 -12°C° 0 mm 2 mps 590 mmHg 92%
    09:00 -9°C° 0 mm 2 mps 591 mmHg 90%
    10:00 -7°C° 0 mm 2 mps 592 mmHg 87%
    11:00 -6°C° 0 mm 2 mps 592 mmHg 88%
    12:00 -5°C° 0 mm 2 mps 593 mmHg 88%
    13:00 -3°C° 0 mm 2 mps 593 mmHg 88%
    14:00 -3°C° 0 mm 2 mps 593 mmHg 90%
    15:00 -3°C° 0 mm 2 mps 593 mmHg 91%
    16:00 -3°C° 0 mm 2 mps 592 mmHg 93%
    17:00 -5°C° 0 mm 2 mps 592 mmHg 92%
    18:00 -6°C° 0 mm 2 mps 591 mmHg 92%
    19:00 -8°C° 0 mm 2 mps 591 mmHg 91%
    20:00 -8°C° 0.1 mm 2 mps 591 mmHg 89%
    21:00 -8°C° 0.1 mm 2 mps 591 mmHg 88%
    22:00 -8°C° 0.1 mm 2 mps 591 mmHg 86%
    23:00 -8°C° 0.3 mm 2 mps 591 mmHg 87%

    2 March, Thursday

    Time Temperature Precipitation Wind Pressure Humidity
    00:00 -7°C° 0.3 mm 2 mps 592 mmHg 87%
    01:00 -7°C° 0.3 mm 2 mps 592 mmHg 88%
    02:00 -6°C° 0.5 mm 2 mps 593 mmHg 89%
    03:00 -4°C° 0.5 mm 1 mps 593 mmHg 91%
    04:00 -3°C° 0.5 mm 1 mps 594 mmHg 92%
    05:00 -3°C° 0.3 mm 1 mps 594 mmHg 93%
    06:00 -3°C° 0.3 mm 1 mps 594 mmHg 94%
    07:00 -3°C° 0.3 mm 1 mps 594 mmHg 95%
    08:00 -2°C° 0.1 mm 1 mps 595 mmHg 95%
    09:00 -1°C° 0.1 mm 1 mps 595 mmHg 95%
    10:00 -1°C° 0.1 mm 0 mps 596 mmHg 95%
    11:00 -1°C° 0.1 mm 0 mps 596 mmHg 95%
    12:00 0°C° 0.1 mm 0 mps 596 mmHg 94%
    13:00 0°C° 0.1 mm 0 mps 596 mmHg 93%
    14:00 +1°C° 0.1 mm 1 mps 596 mmHg 94%
    15:00 +1°C° 0.1 mm 1 mps 596 mmHg 95%
    16:00 +1°C° 0.1 mm 1 mps 595 mmHg 95%
    17:00 -1°C° 0 mm 1 mps 595 mmHg 96%
    18:00 -3°C° 0 mm 0 mps 594 mmHg 98%
    19:00 -5°C° 0 mm 0 mps 594 mmHg 99%
    20:00 -6°C° 0 mm 0 mps 593 mmHg 98%
    21:00 -6°C° 0 mm 1 mps 593 mmHg 98%
    22:00 -7°C° 0 mm 1 mps 593 mmHg 97%
    23:00 -7°C° 0 mm 1 mps 593 mmHg 97%
    Show more